STARLINK-33823 (63661 NORAD) Tracking and Keplerian Element Data

This shows tracking and keplerian element data for the satellite.

Feedback or suggestion? Click here.




ElementValue
Catalog63661
NameSTARLINK-33823
Epoch Orbit3787
Epoch Day353.77463486
Epoch Year2025
RAAN96.6313
Inclination42.9991
Eccentricity0.0003444
Argument of Perigee236.7861
Mean Anonmoly123.2661
Mean Motion15.27566678
Decay Rate-0.0001282
L11 63661U 25083AD 25353.77463486 -.00012820 00000+0 -45723-3 0 9991
L22 63661 42.9991 96.6313 0003444 236.7861 123.2661 15.27566678 37873



Live tracking and technical data element details for STARLINK-33823 (NORAD 63661). STARLINK-33823 can be tracked NOW for your location showing map with azimuth and elevation plus other details from your city location.







IsCatalogInMostPopularTable: catalog: 63661, numindb: 6
Update: records affected: 1



GetName: 63661 STARLINK-33823

Hit Count: updated at: Tue, 21 Apr 2026 19:28:39 GMT